Location: Czekan�w
(50.3488°N, 18.7344°E)
Time: 18:33:24
(UTC+00:00)

Cosmos 2333 Rocket - Pass Details

Date: 17 February 2020
Orbit: 841 x 861 km, 70.8° (Epoch: 28 March)

Event Time Altitude Azimuth Distance (km) Brightness Sun altitude
Exits shadow 01:49:56 26° 28° (NNE) 1,646 4.1 -38.4°
Drops below altitude 10° 01:52:16 10° 29° (NNE) 2,496 5.2 -38.1°
Sets 01:54:43 0° 30° (NNE) 3,433 6.1 -37.8°
